Regional Weather Roundup
Issued by NWS Newport/Morehead, NC

Home | Current Version | Previous Version | Text Only | Print | Product List | Glossary On
Versions: 1 2 3 4 5 6 7 8 9 10 11 12 13 14 15 16 17 18 19 20 21 22 23 24 25 26 27 28 29 30 31 32 33 34 35 36 37 38 39 40 41 42 43 44 45 46 47 48 49 50
627
ASUS42 KMHX 141025
RWRMHX
WEATHER ROUNDUP FOR EASTERN NORTH CAROLINA
NATIONAL WEATHER SERVICE NEWPORT/MOREHEAD CITY NC
500 AM EST SUN FEB 14 2016

NOTE: "FAIR" INDICATES FEW OR NO CLOUDS BELOW 12,000 FEET
WITH NO SIGNIFICANT WEATHER AND/OR OBSTRUCTIONS TO VISIBILITY

NCZ015>017-031-032-045>047-102-103-141100-
NORTH COAST

CITY           SKY/WX    TMP DP  RH WIND       PRES   REMARKS
EDENTON        PTCLDY    17   4  56 N7        30.52R
ELIZABETH CITY CLEAR     17   1  49 N14       30.51R WCI   3
KITTY HAWK     SUNNY     19   4  52 NW9G17    30.46R
MANTEO         CLEAR     20   6  54 N14G20    30.49R WCI   7

$$

NCZ045>047-081-094-103-104-141100-
CENTRAL COAST

CITY           SKY/WX    TMP DP  RH WIND       PRES   REMARKS
FRISCO         CLEAR     24  10  55 N9        30.45R
SWANQUARTER      N/A     18 N/A N/A N5        30.47R

$$

NCZ095-097-098-100-101-141100-
SOUTHERN COAST

CITY           SKY/WX    TMP DP  RH WIND       PRES   REMARKS
BEAUFORT       CLEAR     22   7  52 N12       30.46R WCI  10
CEDAR ISLAND     N/A     23 N/A N/A N24G31    30.53R WCI   7
JACKSONVILLE   PTCLDY    22   4  46 N8        30.47R
PINEY ISLAND   SUNNY    N/A N/A N/A N16G24    30.46R
WILMINGTON     CLEAR     23   3  42 N7        30.47R


$$

NCZ011>013-027>030-043-044-078>080-089-090>093-098-141100-
COASTAL PLAIN

CITY           SKY/WX    TMP DP  RH WIND       PRES   REMARKS
AHOSKIE        PTCLDY    14   1  55 CALM      30.53R
CLINTON        PTCLDY    22   3  43 NE9       30.49R
ELIZABETHTOWN  CLEAR     22   3  43 CALM      30.48R
GOLDSBORO      PTCLDY    19   0  42 N6        30.48R
GREENVILLE     CLEAR     19   3  49 N9        30.51R
HAVELOCK       CLEAR     22   4  46 N15       30.48R WCI   9
KENANSVILLE    PTCLDY    21   2  44 N7        30.50R
KINSTON        PTCLDY    21   5  51 N10       30.50R WCI   9
NEW BERN       CLEAR     20   1  43 NE13      30.50R WCI   7
RICHLANDS      CLEAR     21   1  42 N9        30.47R
ROCKY MOUNT    CLEAR     16   2  54 N8        30.52R
WASHINGTON     CLEAR     18   0  45 NE8       30.51R
WHITEVILLE     PTCLDY    24   2  38 N5        30.47R

$$

AMZ130-135-150-152-154-156-158-170-250-252-270-ANZ085-086-088-633-658-670-141100-
MARINE OBSERVATIONS

STATION/POSITION TIME  TEMP    WIND        PRES    WAVE   SWELL
                       AIR SEA DIR/SP/G            HT/PER HT/PER
                 (UTC) (F)     (DEG/KT/KT) (MB)    (FT/S) (FT/S)
CHESAPEAKE LIGHT 1000   19     350/ 27/ 31 1032.2
64 E VA BEACH    0950   24 50  340/ 23/ 31 1029.6    8/ 8   2/12
DUCK             0900   20     330/ 22/ 27 1029.9
2 E DUCK         0911      41                N/A     6/ 6
OREGON INLET     0900   22 39  330/ 17/ 21 1030.2
13E OREGON INLT  1000      44                N/A     8/ 7
HATTERAS CG      0900   25 40  350/ 24/ 28 1029.7
DIAMOND BUOY     0950   30 72  360/ 23/ 29 1029.8    6/ 8   2/10
CAPE LOOKOUT     NOT AVBL
BEAUFORT LAB     0900   25 42   20/ 11/ 14 1029.3
30 SE NEW RVR IN 1008   31 59              1029.7
30 SE NEW RVR IN 0925      60                N/A     5/ 6
27 SE WRIGHTSVLE 1008   32 59   30/ 17/ 25 1029.5
5 SE WRIGHTSVLE  0908   29 50   20/ 21/ 29 1030.9
225 S CAPE HAT   0950   48 67  350/ 17/ 21   N/A     9/ 9   7/ 9
41 SE CHARLESTON 0950   43 64   30/ 17/ 23 1028.4    5/ 6   2/ 8

$$




USA.gov is the U.S. government's official web portal to all federal, state and local government web resources and services.